User: anonymous   Login
Location: Unspecified
(0.0000°N, 0.0000°E)
Time: 00:19:06
(UTC+00:00)
Language:

XW-2A - Orbit

View from above orbital plane
View from above orbital plane
View from above satellite
View from above satellite

Ground track
Ground track

The orbit data is extracted from the following two-line orbital elements,

1 40903U 15049E   19197.81434325  .00001348  00000-0  33634-4 0  9991
2 40903  97.3362 240.7345 0014952  48.3482  40.1425 15.41914426214586
Epoch (UTC): 16 July 2019 19:32:39
Eccentricity: 0.0014952
inclination: 97.3362°
perigee height: 430 km
apogee height: 450 km
right ascension of ascending node: 240.7345°
argument of perigee: 48.3482°
revolutions per day: 15.41914426
mean anomaly at epoch: 40.1425°
orbit number at epoch: 21458

The dashed part of the orbit path shows where the satellite is in the earth's shadow,  

DLR